(236615) = 2006 JB48

Discovered at Kitt Peak on 2006-05-05 by Spacewatch.

Orbit

Orbit type: Main Belt

Note: WebGL enabled browser required.

epoch2023-09-13.0
epoch JD2460200.5
perihelion date2023-01-05.66714
perihelion JD2459950.16714
argument of perihelion (°)7.48939
ascending node (°)201.30212
inclination (°)3.74171
eccentricity0.1202904
perihelion distance (AU)2.2932385
Tisserand w.r.t. Jupiter3.4
ΔV w.r.t. Earth (km/sec)9.6
semimajor axis (AU)2.6068130
mean anomaly (°)58.62149
mean daily motion (°/day)0.23417420
aphelion distance (AU)2.920
period (years)4.21
P-vector [x]-0.87647899
P-vector [y]-0.44502721
P-vector [z]-0.18367190
Q-vector [x]0.48085604
Q-vector [y]-0.82799154
Q-vector [z]-0.28845705
absolute magnitude16.76
phase slope0.15
uncertainty0
referenceMPEC 2023-N62
observations used393
oppositions14
arc length (days)7237
first opposition used2003
last opposition used2023
residual rms (arc-secs)0.67
perturbers coarse indicatorM-v
perturbers precise indicator003Ek
first observation date used2003-09-18.0
last observation date used2023-07-12.0
computer nameMPCLINUX
JD of orbit computation2456819.440365
perihelion JD uncertainty (days)5.4652E-05
argument of perihelion uncertainty (°)4.6768E-05
ascending node uncertainty (°)4.5173E-05
inclination uncertainty (°)4.9101E-06
eccentricity uncertainty 7.7667E-08
perihelion distance uncertainty (AU)2.1732E-07
Minimum Orbit Intersection Distances (in AU)
for orbit epoch: 2460000.5, reference: E2023-N62
Mercury1.85153
Venus1.57164
Earth1.28875
Mars0.67179
Jupiter2.03589
Saturn6.24902
Uranus16.0489
Neptune26.9317

Observations

399 total observations over interval: 2003 09 18.38947 – 2023 07 12.316174
These data are available for download (format description).

Date (UT) J2000 RA J2000 Dec Magn Location Ref
2003 09 18.38947 00 31 46.21 +05 15 01.4 21.4 V 691 – Steward Observatory, Kitt Peak-Spacewatch MPS 172135
2003 09 18.41658 00 31 44.95 +05 14 51.5 21.7 V 691 – Steward Observatory, Kitt Peak-Spacewatch MPS 172135
2003 09 18.44473 00 31 43.58 +05 14 41.4 21.5 V 691 – Steward Observatory, Kitt Peak-Spacewatch MPS 172135
2003 09 29.31556 00 22 54.87 +04 06 01.9 21.7 V 691 – Steward Observatory, Kitt Peak-Spacewatch MPS 172135
2003 09 29.34826 00 22 53.19 +04 05 49.0 21.4 V 691 – Steward Observatory, Kitt Peak-Spacewatch MPS 172135
2003 09 29.37951 00 22 51.57 +04 05 36.8 21.5 V 691 – Steward Observatory, Kitt Peak-Spacewatch MPS 172135
2003 10 24.18383 00 04 41.06 +01 35 00.4 21.7 V 691 – Steward Observatory, Kitt Peak-Spacewatch MPS 172135
2003 10 24.21042 00 04 40.11 +01 34 52.0 22.2 V 691 – Steward Observatory, Kitt Peak-Spacewatch MPS 172135
2003 10 24.23769 00 04 39.14 +01 34 44.1 21.6 V 691 – Steward Observatory, Kitt Peak-Spacewatch MPS 172135
2004 12 21.27865 06 17 37.55 +17 49 43.0 20.3 V 691 – Steward Observatory, Kitt Peak-Spacewatch MPS 173613
2004 12 21.30417 06 17 35.95 +17 49 42.4 20.3 V 691 – Steward Observatory, Kitt Peak-Spacewatch MPS 173613
2004 12 21.32943 06 17 34.38 +17 49 42.1 20.1 V 691 – Steward Observatory, Kitt Peak-Spacewatch MPS 173613
2006 04 24.26765 15 16 33.88 -15 36 56.5 19.9 V 691 – Steward Observatory, Kitt Peak-Spacewatch MPS 172135
2006 04 24.28496 15 16 33.07 -15 36 51.2 19.8 V 691 – Steward Observatory, Kitt Peak-Spacewatch MPS 172135
2006 04 24.30229 15 16 32.27 -15 36 45.7 19.9 V 691 – Steward Observatory, Kitt Peak-Spacewatch MPS 172135
2006 05 05.26735 15 07 42.85 -14 36 44.1 19.5 V 691 – Steward Observatory, Kitt Peak-Spacewatch MPS 172135
2006 05 05.28547 15 07 41.91 -14 36 38.3 19.4 V 691 – Steward Observatory, Kitt Peak-Spacewatch MPS 172135
2006 05 05.30386 15 07 40.89 -14 36 31.2 20.4 V 691 – Steward Observatory, Kitt Peak-Spacewatch MPS 172135
2006 05 09.46933 15 04 07.06 -14 13 17.8 18.8 V E12 – Siding Spring Survey MPS 172135
2006 05 09.47329 15 04 06.92 -14 13 16.3 18.9 V E12 – Siding Spring Survey MPS 172135
2006 05 09.47723 15 04 06.74 -14 13 15.4 18.6 V E12 – Siding Spring Survey MPS 172135
2006 05 09.48118 15 04 06.52 -14 13 14.7 19.1 V E12 – Siding Spring Survey MPS 172135
2006 05 16.28529 14 58 22.65 -13 36 58.6 19.2 R 644 – Palomar Mountain/NEAT MPS 172135
2006 05 16.30895 14 58 21.44 -13 36 51.6 19.2 R 644 – Palomar Mountain/NEAT MPS 172135
2006 05 16.33263 14 58 20.27 -13 36 43.7 19.2 R 644 – Palomar Mountain/NEAT MPS 172135
2006 05 21.24001 14 54 27.94 -13 12 30.9 19.8 V 691 – Steward Observatory, Kitt Peak-Spacewatch MPS 172135
2006 05 21.25734 14 54 27.13 -13 12 26.3 19.7 V 691 – Steward Observatory, Kitt Peak-Spacewatch MPS 172135
2006 05 21.27468 14 54 26.28 -13 12 21.6 19.8 V 691 – Steward Observatory, Kitt Peak-Spacewatch MPS 172135
2006 05 25.20140 14 51 35.78 -12 54 44.3 19.5 R 644 – Palomar Mountain/NEAT MPS 172135
2006 05 25.22084 14 51 34.91 -12 54 39.2 19.6 R 644 – Palomar Mountain/NEAT MPS 172135
2006 05 25.25249 14 51 33.57 -12 54 31.5 19.5 R 644 – Palomar Mountain/NEAT MPS 172135
2007 10 08.22815 22 54 44.49 -04 10 52.7 21.4 V G96 – Mt. Lemmon Survey MPS 223482
2007 10 08.23505 22 54 44.24 -04 10 54.8 21.1 V G96 – Mt. Lemmon Survey MPS 223482
2007 10 08.24181 22 54 43.99 -04 10 56.9 21.3 V G96 – Mt. Lemmon Survey MPS 223482
2007 10 08.24870 22 54 43.81 -04 10 58.5 21.1 V G96 – Mt. Lemmon Survey MPS 223482
2007 10 11.23902 22 53 19.57 -04 24 47.5 20.6 V G96 – Mt. Lemmon Survey MPS 223482
2007 10 11.24616 22 53 19.35 -04 24 50.0 21.4 V G96 – Mt. Lemmon Survey MPS 223482
2007 10 11.25322 22 53 19.17 -04 24 51.8 21.2 V G96 – Mt. Lemmon Survey MPS 223482
2007 10 11.26043 22 53 18.92 -04 24 53.7 20.5 V G96 – Mt. Lemmon Survey MPS 223482
2007 10 12.09563 22 52 57.75 -04 28 32.2 21.2 V 691 – Steward Observatory, Kitt Peak-Spacewatch MPS 267564
2007 10 12.11480 22 52 57.23 -04 28 37.3 21.1 V 691 – Steward Observatory, Kitt Peak-Spacewatch MPS 267564
2007 10 12.13396 22 52 56.76 -04 28 42.4 20.6 V 691 – Steward Observatory, Kitt Peak-Spacewatch MPS 267564
2008 11 07.32800 05 15 47.91 +19 06 09.2 20.2 V G96 – Mt. Lemmon Survey MPS 263273
2008 11 07.33494 05 15 47.66 +19 06 08.5 20.5 V G96 – Mt. Lemmon Survey MPS 263273
2008 11 07.34190 05 15 47.41 +19 06 07.5 20.7 V G96 – Mt. Lemmon Survey MPS 263273
2008 11 07.34885 05 15 47.12 +19 06 06.2 20.9 V G96 – Mt. Lemmon Survey MPS 263273
2008 12 01.24261 04 56 12.75 +18 06 22.6 20.2 V 691 – Steward Observatory, Kitt Peak-Spacewatch MPS 267564
2008 12 01.26033 04 56 11.64 +18 06 19.9 20.4 V 691 – Steward Observatory, Kitt Peak-Spacewatch MPS 267564
2008 12 01.27797 04 56 10.60 +18 06 17.1 20.3 V 691 – Steward Observatory, Kitt Peak-Spacewatch MPS 267564
2008 12 31.08222 04 29 14.55 +17 07 01.1 20.5 V 691 – Steward Observatory, Kitt Peak-Spacewatch MPS 270177
2008 12 31.09608 04 29 13.98 +17 07 00.3 20.8 V 691 – Steward Observatory, Kitt Peak-Spacewatch MPS 270177
2008 12 31.10994 04 29 13.37 +17 06 59.5 20.4 V 691 – Steward Observatory, Kitt Peak-Spacewatch MPS 270177
2010 03 06.23289 13 13 48.61 -09 32 18.8 19.3 Y W91 – VHS-VISTA, Cerro Paranal MPS 678213
2010 03 06.23408 13 13 48.59 -09 32 18.6 19.4 Y W91 – VHS-VISTA, Cerro Paranal MPS 678213
2010 03 06.23681 13 13 48.52 -09 32 18.0 18.9 J W91 – VHS-VISTA, Cerro Paranal MPS 678213
2010 03 06.23802 13 13 48.50 -09 32 17.9 18.9 J W91 – VHS-VISTA, Cerro Paranal MPS 678213
2010 03 06.24209 13 13 48.43 -09 32 17.2 18.4 K W91 – VHS-VISTA, Cerro Paranal MPS 678213
2010 03 06.24498 13 13 48.36 -09 32 16.3 18.7 H W91 – VHS-VISTA, Cerro Paranal MPS 678213
2010 03 06.24628 13 13 48.31 -09 32 16.3 18.5 H W91 – VHS-VISTA, Cerro Paranal MPS 678213
2010 03 15.32518 13 09 50.20 -08 54 03.2 19.8 V 691 – Steward Observatory, Kitt Peak-Spacewatch MPS 317960
2010 03 15.34288 13 09 49.57 -08 53 57.9 20.0 V 691 – Steward Observatory, Kitt Peak-Spacewatch MPS 317960
2010 03 15.36403 13 09 48.84 -08 53 51.6 19.8 V 691 – Steward Observatory, Kitt Peak-Spacewatch MPS 317960
2010 03 21.27089 13 06 12.66 -08 21 08.9 19.9 V 691 – Steward Observatory, Kitt Peak-Spacewatch MPS 319359
2010 03 21.28861 13 06 11.91 -08 21 02.4 19.6 V 691 – Steward Observatory, Kitt Peak-Spacewatch MPS 319359
2010 03 21.30632 13 06 11.16 -08 20 56.3 19.7 V 691 – Steward Observatory, Kitt Peak-Spacewatch MPS 319359
2010 03 27.436374 13 01 48.682 -07 41 51.72 19.36 i F51 – Pan-STARRS 1, Haleakala MPS 338871
2010 03 27.438633 13 01 48.565 -07 41 50.61 19.32 i F51 – Pan-STARRS 1, Haleakala MPS 338871
2010 03 27.442597 13 01 48.360 -07 41 49.02 19.62 i F51 – Pan-STARRS 1, Haleakala MPS 338871
2010 03 27.444827 13 01 48.249 -07 41 48.30 19.31 i F51 – Pan-STARRS 1, Haleakala MPS 338871
2010 04 03.448180 12 56 20.039 -06 52 52.95 19.30 i F51 – Pan-STARRS 1, Haleakala MPS 338871
2010 04 03.456498 12 56 19.612 -06 52 49.62 19.28 i F51 – Pan-STARRS 1, Haleakala MPS 338871
2010 04 05.31468 12 54 50.29 -06 39 26.0 19.2 V G96 – Mt. Lemmon Survey MPS 322133
2010 04 05.32058 12 54 49.96 -06 39 23.4 19.2 V G96 – Mt. Lemmon Survey MPS 322133
2010 04 05.32653 12 54 49.68 -06 39 20.9 19.2 V G96 – Mt. Lemmon Survey MPS 322133
2010 04 05.33251 12 54 49.35 -06 39 18.3 19.4 V G96 – Mt. Lemmon Survey MPS 322133
2010 04 07.38705 12 53 10.38 -06 24 23.5 19.5   704 – Lincoln Laboratory ETS, New Mexico MPS 322133
2010 04 07.39861 12 53 09.96 -06 24 17.7 19.2   704 – Lincoln Laboratory ETS, New Mexico MPS 322133
2010 04 07.41017 12 53 09.29 -06 24 13.1 19.6   704 – Lincoln Laboratory ETS, New Mexico MPS 322133
2010 05 05.18632 12 35 49.59 -03 32 46.5 20.2 V G96 – Mt. Lemmon Survey MPS 326282
2010 05 05.19161 12 35 49.45 -03 32 45.3 20.2 V G96 – Mt. Lemmon Survey MPS 326282
2010 05 05.19694 12 35 49.30 -03 32 43.7 20.3 V G96 – Mt. Lemmon Survey MPS 326282
2010 05 05.20228 12 35 49.20 -03 32 42.4 20.3 V G96 – Mt. Lemmon Survey MPS 326282
2012 10 21.37866 03 58 56.24 +17 51 33.2 20.5 V 691 – Steward Observatory, Kitt Peak-Spacewatch MPS 439270
2012 10 21.39634 03 58 55.61 +17 51 30.1 21.0 V 691 – Steward Observatory, Kitt Peak-Spacewatch MPS 439270
2012 10 21.41402 03 58 54.96 +17 51 26.7 20.8 V 691 – Steward Observatory, Kitt Peak-Spacewatch MPS 439270
